This demonstration page uses our WeatherBlox Daily Observations layout. Learn more.

41.55636, -103.73856

Hourly Observations for December 17, 2019

Temp ( °F °C ) Dew Point ( °F °C ) Humidity (%) Winds ( mph kmh ) Pressure ( in mb ) Visibility ( mi km ) Precip ( " mm )
12:58 am 00:58 Clear 12 -11.3 5 -15 74 74 W 9 15 30.48 1032 10 16.0934 0 0
1:58 am 01:58 Clear 12 -11.3 4 -15.3 73 73 W 7 11 30.49 1032 10 16.0934 0 0
2:58 am 02:58 Clear 11 -11.9 4 -15.5 75 75 W 5 7 30.51 1033 10 16.0934 0 0
3:58 am 03:58 Clear 12 -11 5 -15.1 72 72 Calm 30.48 1032 10 16.0934 0 0
4:58 am 04:58 Clear 10 -12 4 -15.8 74 74 W 8 13 30.48 1032 10 16.0934 0 0
5:58 am 05:58 Clear 10 -12.1 4 -15.6 75 75 W 10 17 30.48 1032 10 16.0934 0 0
6:58 am 06:58 Clear 10 -12.2 4 -15.7 75 75 W 8 13 30.47 1032 10 16.0934 0 0
7:58 am 07:58 Clear 12 -11 5 -15 73 73 W 9 15 30.45 1031 10 16.0934 0 0
8:58 am 08:58 Clear 12 -10.9 5 -15.1 71 71 W 8 13 30.44 1031 10 16.0934 0 0
9:58 am 09:58 Clear 13 -10.7 4 -15.3 69 69 W 8 13 30.43 1030 10 16.0934 0 0
10:58 am 10:58 Clear 16 -9 4 -15.3 61 61 WNW 14 22 30.42 1030 10 16.0934 0 0
11:58 am 11:58 Clear 17 -8.6 4 -15.3 59 59 WNW 18 30 30.42 1030 10 16.0934 0 0
12:59 pm 12:59 Clear 13 -10.3 4 -15.6 65 65 W 13 20 30.46 1031 10 16.0934 0 0
1:58 pm 13:58 Mostly Clear 17 -8.6 7 -14 65 65 W 17 28 30.45 1031 10 16.0934 0 0
2:58 pm 14:58 Cloudy 22 -5.8 10 -12.1 61 61 WNW 18 30 30.45 1031 10 16.0934 0 0
3:58 pm 15:58 Mostly Cloudy 25 -4 12 -11 59 59 WNW 17 28 30.46 1032 10 16.0934 0 0
4:58 pm 16:58 Mostly Cloudy 27 -2.8 13 -10.3 57 57 WNW 17 28 30.48 1032 10 16.0934 0 0
5:58 pm 17:58 Mostly Cloudy 30 -1.1 15 -9.6 53 53 WNW 17 28 30.45 1031 10 16.0934 0 0
6:58 pm 18:58 Partly Cloudy 30 -1 17 -8.4 58 58 NW 20 31 30.45 1031 10 16.0934 0 0
7:58 pm 19:58 Sunny 31 -0.4 17 -8.4 55 55 NNW 20 31 30.41 1030 10 16.0934 0 0
8:58 pm 20:58 Sunny 33 0.3 16 -8.7 51 51 NW 17 28 30.4 1030 10 16.0934 0 0
11:58 pm 23:58 Clear 27 -2.9 14 -10.1 58 58 WNW 15 24 30.42 1030 10 16.0934 0 0

Powered by AerisWeather